COSMOS 2251 DEB, 34819

Orbit data source: Space-Track

COSMOS 2251 DEB, 34819 is space debris in LEO originally from a launch on Wed, 16 Jun 1993 UTC launched from the Plesetsk Missile And Space Complex (PKMTR). The debris from Iridium 33, an American commercial communications satellite, has been tracked extensively since its accidental collision with the defunct Russian satellite Cosmos 2251 in 2009. This event, occurring at high speed in low Earth orbit (LEO), generated thousands of pieces of space debris, significantly increasing the risk of further collisions. The Iridium 33 debris cloud has impacted space traffic management and orbital debris mitigation strategies, making it a subject of ongoing study in space situational awareness.

Loading next visibility...
Identifier
34819, 1993-036ABJ
Orbit
LEO
Country
Flag of CISCIS
Related business
Manufacturer
Unknown
Mission
Spacecraft
Bus & Motor
Unknown
Mass
Unknown
Launch date (UTC)
1993-06-16 (33 years ago)
Launch vehicle
Unknown
Launch site
Plesetsk Missile And Space Complex (PKMTR)
Object type
Payload
Rocket body
Debris
Shape & HBR
Unknown shape, 0.1 m
Radar Cross Section
Medium (>0.1 m² and <1 m²)

Expand to show TLE details & history
Last TLE update: 1 day ago

TLE from 1 day ago
0 COSMOS 2251 DEB
1 34819U 93036ABJ 26206.33407731  .00005362  00000-0  96276-3 0  9999
2 34819  74.0169  69.7293 0016046 109.2949   7.2129 14.66863913915194
Epoch: 2026-07-25T08:01Z
TLE epoch observation values (Epoch: 2026-07-25T08:01:04.279Z)
Latitude
59.43639°
Longitude
157.57105°
Altitude
669.608 km
Speed
7.534 km/s
True Right ascension
14h 43m 32s
True Declination
59° 17' 01"
Sunlit
Object was in daylight at epoch
Visualization orbit readout
Latitude
Unknown
Longitude
Unknown
Altitude
Unknown
Speed
Unknown
Apparent Right ascension
Unknown
Apparent Declination
Unknown
Sunlit
N/A
Visualization observer readout
Local Sidereal Time
00:10:20
Azimuth
Unknown
Elevation
Unknown
Doppler factor
Unknown
Orbital elements
Apogee altitude
679.996 km
Perigee altitude
657.382 km
Semi-major axis
7,046.826 km
Eccentricity
0.0016
Inclination
74.0169°
RAAN
69.7293°
Arg. of periapsis
109.2949°
True anomaly
7.23603°
Mean anomaly
7.2129°
Eccentric anomaly
7.22446°
Mean motion
3.66904 °/min
Orbital period
98.12 mins
BSTAR
0.00096276

Documentation

Showing up to 5 results
|